フィンレー彗星

15P/Finlay (1995)

English version
Home page
Total 6,336 html files since Dec. 4, 1995
Updated on May 6, 2008

---------------------------------------------------------------------

・ プロフィール

・ 軌道要素

  by Kenji Muraoka,
  from 22 observations  1974 July 19  to  1995 Dec. 31,
  mean residual is +/- 0.89 arc seconds.

      Epoch  =  1995 May   3.0  TT       JDT = 2449840.5
          T  =  1995 May   5.04187       +/- 0.00062 (m.e.) TT
       Peri. =  323.54591                +/- 0.00212
       Node  =   42.04065                +/- 0.00211   (2000.0)
       Incl. =    3.67356                +/- 0.00006
          q  =    1.0355492              +/- 0.0000051 AU
          e  =    0.7103049              +/- 0.0000011
          a  =    3.5746175              +/- 0.0000063 AU
          n  =    0.14583431             +/- 0.00000038
          P  =    6.758                  +/- 0.0000178  years
         A1  =   +0.254                  +/- 0.028
         A2  =   +0.01913                +/- 0.00034

・ 星図

・ 1995年 1月 3日〜1995年 7月22日
・ 1995年 5月23日〜1995年12月29日

・ 光度変化

        m1 = 11.5 + 5 logΔ + 25.0 log r(t - 20)  [  ,20]  (              〜1995年 5月25日)
        m1 = 11.6 + 5 logΔ + 17.0 log r(t - 20)  [20,  ]  (1995年 5月25日〜              )

---------------------------------------------------------------------

軌道要素は村岡健治氏の計算によるものです。
星図は StellaNavigator Ver.2.0 for Windows (アストロアーツ 編著 / アスキー出版局刊) で作成したものです。
光度グラフはComet for Windowsで作成したものです。

---------------------------------------------------------------------

Copyright(C) 1995-2008 Seiichi Yoshida (comet@aerith.net). All rights reserved.